[[{"header":{"parameterUnit":"m.s-1","parameterCategory":1,"la1":30.2991,"la2":30.254,"lo1":-89.0895,"lo2":-89.0444,"dy":0.0017,"dx":0.0017,"nx":28,"ny":28,"refTime":"2025-03-19T09:00:00:Z","depth":0,"parameterNumber":2,"parameterNumberName":"U-component_of_WINDS"},"data":[0,0,0,0,0,0,0,0,0,0,0,0,0,0,0,0,0,0,0,0,0,0,0,0,0,0,0,0,0,0,0,0,0,0,0,0,0,0,0,0,0,0,0,0,0,0,0,0,0,0,0,0,0,0,0,0,0,0,2.2064,2.2064,0,2.2076,2.2076,2.2077,2.2025,2.2023,2.2022,2.2021,2.2032,2.2034,2.2035,0,0,0,0,0,0,0,0,0,0,0,0,0,2.1997,2.1999,2.2064,2.2064,2.2065,2.2076,2.2076,2.2077,2.2025,2.2023,2.2022,2.202,2.2031,2.2033,2.2035,0,0,0,0,0,0,0,0,0,0,0,0,0,2.202,2.1999,2.2064,2.204,2.2038,2.2076,2.2076,2.2077,2.2026,2.2023,2.2021,2.2019,2.2031,2.2033,2.2036,2.2097,0,0,2.2044,2.2045,0,0,0,0,0,0,0,0,2.2018,2.2022,2.2044,2.2042,2.204,2.2047,2.2057,2.2083,2.2026,2.203,2.2021,2.2018,2.2039,2.204,2.2048,2.2097,2.2098,2.2044,2.2045,2.2046,2.2047,0,0,0,0,0,0,0,2.2017,2.2021,2.2069,2.2044,2.2042,2.2029,2.203,2.2062,2.2047,2.203,2.2026,2.2028,2.2037,2.2045,2.2048,2.2098,2.2044,2.2046,2.2048,2.2049,2.2201,2.2203,0,0,0,0,0,0,2.2019,2.202,2.2069,2.2069,2.2023,2.2032,2.2033,2.2047,2.2047,2.2044,2.203,2.2026,2.2042,2.2045,2.2048,2.212,2.2046,2.2049,2.205,2.2198,2.2201,2.2204,0,0,0,0,0,0,2.2017,2.2023,2.2068,2.2044,2.2049,2.2036,2.2052,2.2048,2.2056,2.2047,2.2044,2.2041,2.204,2.2044,2.2086,2.212,2.205,2.2052,2.2195,2.2199,2.2203,2.2266,0,0,0,0,0,0,2.2016,2.2023,2.2046,2.2045,2.205,2.2106,2.2054,2.205,2.2061,2.2055,2.2056,2.2054,2.2039,2.2082,2.2088,2.2122,2.2054,2.2192,2.2197,2.2201,2.226,2.2271,2.228,0,0,0,0,0,2.2013,2.2062,2.2047,2.2053,2.2078,2.2108,2.2111,2.2092,2.2064,2.2087,2.2081,2.2054,2.2116,2.2087,2.2093,2.2129,2.219,2.2196,2.2201,2.2256,2.2269,2.228,0,0,0,0,0,0,2.2067,2.2062,2.2045,2.2095,2.2102,2.2099,2.2127,2.2106,2.2121,2.2115,2.2091,2.2092,2.2138,2.2137,2.2105,2.2189,2.2148,2.2155,2.2187,2.22,2.2209,2.2208,2.2056,0,0,0,0,0,2.2085,2.2109,2.2103,2.2148,2.2153,2.214,2.2152,2.2137,2.2143,2.2146,2.2143,2.215,2.2171,2.2185,2.2204,2.226,2.226,2.2288,2.2298,2.2306,2.2313,2.2344,2.2356,2.2223,2.2222,2.2222,0,0,2.2121,2.2121,2.2138,2.2159,2.2163,2.2189,2.2142,2.2171,2.2191,2.215,2.2189,2.2188,2.2195,2.2244,2.2266,2.2245,2.235,2.2313,2.232,2.2322,2.2351,2.2364,2.2375,2.2226,2.2226,2.2225,0,0,2.2201,2.2204,2.2242,2.2248,2.2255,2.2246,2.2256,2.2256,2.2254,2.2293,2.2264,2.2287,2.2323,2.2329,2.2337,2.2423,2.2399,2.243,2.2481,2.2512,2.2523,2.2532,2.2563,2.2575,2.2437,2.2437,2.2437,0,2.2245,2.2283,2.2264,2.2296,2.2307,2.2273,2.2312,2.2318,2.2331,2.2339,2.2316,2.2362,2.2364,2.2415,2.2437,2.2444,2.2455,2.2429,2.2523,2.2532,2.254,2.257,2.2582,2.244,2.244,2.244,2.2439,0,2.2338,2.2365,2.2396,2.241,2.2424,2.246,2.2446,2.2463,2.2448,2.2442,2.2484,2.2485,2.2504,2.2516,2.2501,2.2566,2.2553,2.2527,2.2485,2.2557,2.2584,2.2596,2.2446,2.2444,2.2443,2.2442,0,0,2.245,2.2455,2.2467,2.2474,2.248,2.2501,2.2536,2.2555,2.2571,2.2581,2.261,2.2643,2.262,2.2629,2.2615,2.2642,2.2711,2.2613,2.2613,2.2631,2.2784,2.2804,2.2817,2.2696,2.2698,2.27,2.2784,0,2.2528,2.2588,2.2573,2.2632,2.2658,2.2627,2.2658,2.2666,2.2662,2.2683,2.2679,2.2703,2.267,2.2676,2.2701,2.2697,2.2742,2.2691,2.2723,2.2724,2.2722,2.2831,2.2851,2.293,2.2794,2.2796,2.2798,0,2.2627,2.2644,2.2706,2.2711,2.2721,2.2748,2.2766,2.2787,2.2796,2.2792,2.2804,2.2785,2.282,2.2779,2.2827,2.2793,2.2806,2.2806,2.2809,2.2811,2.2765,2.2836,2.2955,2.2967,2.2814,2.2813,2.2812,0,2.2703,2.2741,2.2783,2.279,2.2796,2.2817,2.282,2.2827,2.2841,2.2857,2.2865,2.2885,2.2896,2.2912,2.2899,2.287,2.295,2.2908,2.2947,2.2948,2.2965,2.2964,2.3087,2.2973,2.2973,2.2973,2.2973,0,2.2793,2.2832,2.2817,2.2843,2.2887,2.287,2.2914,2.2914,2.2921,2.2947,2.2922,2.2947,2.2929,2.2953,2.2943,2.2985,2.299,2.2988,2.2985,2.299,2.299,2.2997,2.2991,2.2976,2.2975,2.2975,2.2974,0,2.2884,2.2876,2.292,2.2924,2.2925,2.2958,2.296,2.2985,2.2981,2.3014,2.3021,2.3014,2.3041,2.303,2.3058,2.3052,2.3106,2.3096,2.3103,2.3101,2.3141,2.3138,2.3273,2.329,2.3166,2.3167,2.3168,0,2.2941,2.2971,2.2978,2.2994,2.3,2.3026,2.304,2.3026,2.3042,2.3056,2.3079,2.3104,2.3123,2.3168,2.3165,2.3187,2.3177,2.3223,2.318,2.3185,2.3178,2.3176,2.318,2.3231,2.3233,2.3234,2.3235,0,2.3043,2.3039,2.306,2.3082,2.31,2.3116,2.313,2.3144,2.3131,2.315,2.3178,2.3193,2.3223,2.3248,2.3268,2.3272,2.3252,2.3249,2.3259,2.3265,2.3268,2.3267,2.3127,2.3246,2.3244,2.3244,2.3243,2.3243,2.3119,2.3145,2.3155,2.3181,2.319,2.3204,2.3228,2.3228,2.3251,2.3274,2.3265,2.3297,2.3307,2.3332,2.334,2.3365,2.3347,2.3362,2.3366,2.3369,2.3375,2.3265,2.3369,2.3368,2.3368,2.3368,2.3367,0,2.3221,2.3226,2.325,2.3271,2.3292,2.3273,2.3287,2.3306,2.3335,2.3347,2.3367,2.34,2.3425,2.3426,2.3449,2.347,2.3461,2.3476,2.3474,2.3476,2.3389,2.3378,2.3483,2.3483,2.3483,2.3483,2.3483,2.3483,2.3276,2.3319,2.3316,2.3364,2.3369,2.3402,2.3412,2.3425,2.3435,2.3473,2.3494,2.3495,2.3502,2.3527,2.355,2.3549,2.3559,2.3578,2.3574,2.3493,2.3482,2.3471,2.346,2.358,2.358,2.3658,2.3659,2.366]},{"header":{"parameterUnit":"m.s-1","parameterCategory":1,"la1":30.2991,"la2":30.254,"lo1":-89.0895,"lo2":-89.0444,"dy":0.0017,"dx":0.0017,"nx":28,"ny":28,"refTime":"2025-03-19T09:00:00:Z","depth":0,"parameterNumber":3,"parameterNumberName":"V-component_of_WINDS"},"data":[0,0,0,0,0,0,0,0,0,0,0,0,0,0,0,0,0,0,0,0,0,0,0,0,0,0,0,0,0,0,0,0,0,0,0,0,0,0,0,0,0,0,0,0,0,0,0,0,0,0,0,0,0,0,0,0,0,0,-5.9163,-5.9165,0,-5.9367,-5.9369,-5.9371,-5.9309,-5.9304,-5.93,-5.9296,-5.9504,-5.9513,-5.9522,0,0,0,0,0,0,0,0,0,0,0,0,0,-5.872,-5.8729,-5.9163,-5.9166,-5.9168,-5.9366,-5.9369,-5.9372,-5.9309,-5.9304,-5.9299,-5.9294,-5.9501,-5.9512,-5.9523,0,0,0,0,0,0,0,0,0,0,0,0,0,-5.8917,-5.8732,-5.9163,-5.9161,-5.9163,-5.9366,-5.9369,-5.9373,-5.9311,-5.9304,-5.9298,-5.9292,-5.9497,-5.9511,-5.9525,-5.9741,0,0,-5.9568,-5.9575,0,0,0,0,0,0,0,0,-5.8906,-5.8933,-5.9159,-5.9161,-5.9164,-5.9306,-5.9289,-5.9496,-5.9312,-5.9255,-5.9296,-5.9289,-5.9443,-5.9461,-5.9513,-5.9751,-5.976,-5.957,-5.9578,-5.9584,-5.9588,0,0,0,0,0,0,0,-5.8892,-5.8924,-5.9243,-5.9162,-5.9165,-5.915,-5.9171,-5.9328,-5.9382,-5.9259,-5.9255,-5.928,-5.9443,-5.95,-5.9518,-5.9763,-5.9569,-5.9582,-5.9591,-5.9596,-6.0189,-6.0196,0,0,0,0,0,0,-5.8877,-5.8913,-5.9237,-5.925,-5.9017,-5.9163,-5.9186,-5.9267,-5.938,-5.9391,-5.9285,-5.9276,-5.9479,-5.9501,-5.9525,-5.9787,-5.9584,-5.9598,-5.9606,-6.0182,-6.0191,-6.0199,0,0,0,0,0,0,-5.8868,-5.8907,-5.9229,-5.9081,-5.912,-5.9178,-5.9268,-5.9274,-5.9331,-5.94,-5.9409,-5.9333,-5.9474,-5.9505,-5.9688,-5.9793,-5.9604,-5.9617,-6.0174,-6.0185,-6.0195,-6.0312,0,0,0,0,0,0,-5.8855,-5.8904,-5.8987,-5.9083,-5.9129,-5.9389,-5.9275,-5.9283,-5.9356,-5.9346,-5.9448,-5.9458,-5.9472,-5.9667,-5.9703,-5.9809,-5.9628,-6.0165,-6.0179,-6.0191,-6.0299,-6.0326,-6.0348,0,0,0,0,0,-5.884,-5.9011,-5.8991,-5.9031,-5.9234,-5.9396,-5.9422,-5.9434,-5.9364,-5.9448,-5.9493,-5.9455,-5.9776,-5.9687,-5.9726,-5.9839,-6.0158,-6.0175,-6.019,-6.0288,-6.0321,-6.0348,0,0,0,0,0,0,-5.8925,-5.9024,-5.9003,-5.921,-5.9295,-5.9385,-5.9491,-5.9467,-5.9573,-5.956,-5.957,-5.9594,-5.9782,-5.9828,-5.9727,-6.0055,-5.9957,-5.9981,-6.0018,-6.0049,-6.0073,-6.0058,-5.964,0,0,0,0,0,-5.8968,-5.9092,-5.9171,-5.9347,-5.939,-5.9434,-5.9505,-5.9507,-5.9595,-5.963,-5.9688,-5.9775,-5.9895,-5.9974,-6.0089,-6.0305,-6.0327,-6.0402,-6.0427,-6.0446,-6.0468,-6.0587,-6.0622,-6.0252,-6.0252,-6.0252,0,0,-5.9059,-5.9128,-5.9205,-5.9366,-5.9432,-5.9559,-5.9464,-5.9603,-5.9698,-5.9651,-5.9828,-5.9874,-5.9972,-6.0173,-6.0264,-6.0217,-6.0575,-6.0467,-6.0482,-6.0493,-6.0607,-6.0642,-6.0673,-6.0263,-6.0261,-6.0259,0,0,-5.9289,-5.9353,-5.9507,-5.9575,-5.9676,-5.9704,-5.9741,-5.9835,-5.9864,-6.0042,-6.0009,-6.0122,-6.0329,-6.04,-6.0463,-6.0721,-6.0691,-6.0758,-6.0887,-6.1002,-6.1032,-6.1057,-6.115,-6.1184,-6.0779,-6.0779,-6.078,0,-5.9388,-5.958,-5.9589,-5.9731,-5.9803,-5.9767,-5.9923,-5.9989,-6.0122,-6.0173,-6.0118,-6.0378,-6.044,-6.0658,-6.0721,-6.0773,-6.0816,-6.0747,-6.1027,-6.1053,-6.1077,-6.1166,-6.1201,-6.0787,-6.0786,-6.0785,-6.0785,0,-5.9697,-5.9831,-5.9943,-6.0073,-6.0158,-6.0306,-6.0338,-6.0422,-6.0417,-6.0451,-6.0633,-6.0707,-6.0836,-6.0888,-6.0884,-6.1106,-6.1074,-6.1023,-6.0925,-6.112,-6.1203,-6.1237,-6.0798,-6.0795,-6.0793,-6.0791,0,0,-5.9987,-6.0121,-6.0162,-6.0222,-6.0331,-6.0434,-6.0581,-6.0708,-6.0781,-6.0874,-6.0998,-6.1174,-6.1128,-6.12,-6.1203,-6.1305,-6.1506,-6.1242,-6.1244,-6.1289,-6.1756,-6.1795,-6.1834,-6.1486,-6.1492,-6.1497,-6.1748,0,-6.0227,-6.0486,-6.0499,-6.0735,-6.0858,-6.0826,-6.0954,-6.1035,-6.107,-6.118,-6.1219,-6.1344,-6.1273,-6.1317,-6.1415,-6.146,-6.16,-6.1442,-6.1602,-6.1607,-6.158,-6.1878,-6.1919,-6.2152,-6.1781,-6.1787,-6.1791,0,-6.0542,-6.0646,-6.0894,-6.0987,-6.1039,-6.1154,-6.1272,-6.1377,-6.1469,-6.1487,-6.1568,-6.1557,-6.1708,-6.1604,-6.1812,-6.1705,-6.1771,-6.1803,-6.1812,-6.1828,-6.1712,-6.1903,-6.2226,-6.2262,-6.1842,-6.1838,-6.1834,0,-6.073,-6.0932,-6.1107,-6.1158,-6.127,-6.1352,-6.1402,-6.1487,-6.1563,-6.1666,-6.1715,-6.1834,-6.19,-6.1992,-6.2013,-6.1936,-6.2222,-6.212,-6.2242,-6.2242,-6.2305,-6.2301,-6.2645,-6.2346,-6.2345,-6.2344,-6.2344,0,-6.0998,-6.1151,-6.1193,-6.1301,-6.1472,-6.1485,-6.1654,-6.1698,-6.1774,-6.189,-6.1868,-6.1978,-6.1999,-6.2113,-6.2131,-6.2301,-6.233,-6.235,-6.2353,-6.2353,-6.235,-6.2397,-6.2382,-6.2354,-6.2352,-6.235,-6.2348,0,-6.1237,-6.1271,-6.146,-6.1551,-6.1577,-6.1699,-6.1777,-6.188,-6.1913,-6.206,-6.2095,-6.2146,-6.2279,-6.231,-6.2467,-6.2479,-6.2682,-6.2668,-6.2651,-6.2651,-6.2772,-6.2761,-6.3159,-6.3212,-6.2877,-6.288,-6.2882,0,-6.1406,-6.1524,-6.1627,-6.1704,-6.1758,-6.1881,-6.1958,-6.1976,-6.2057,-6.2171,-6.2261,-6.2391,-6.2496,-6.271,-6.2762,-6.2882,-6.2873,-6.3004,-6.2891,-6.2887,-6.2876,-6.2869,-6.2882,-6.3026,-6.3029,-6.3032,-6.3034,0,-6.1703,-6.1715,-6.1827,-6.1947,-6.204,-6.2134,-6.2224,-6.2288,-6.2318,-6.2411,-6.2547,-6.2628,-6.279,-6.292,-6.3041,-6.3093,-6.307,-6.307,-6.3105,-6.3106,-6.3092,-6.3102,-6.2711,-6.3061,-6.3058,-6.3056,-6.3055,-6.3054,-6.1914,-6.2017,-6.2106,-6.2233,-6.2302,-6.2387,-6.2489,-6.2535,-6.2649,-6.2782,-6.2785,-6.2934,-6.3022,-6.3183,-6.3242,-6.3358,-6.3318,-6.3368,-6.3381,-6.3393,-6.3405,-6.3072,-6.338,-6.3379,-6.3379,-6.3378,-6.3377,0,-6.2211,-6.2267,-6.2383,-6.251,-6.261,-6.2579,-6.2677,-6.2763,-6.2894,-6.2978,-6.3083,-6.3239,-6.3366,-6.3427,-6.3552,-6.3633,-6.3626,-6.3666,-6.3661,-6.3673,-6.3433,-6.3391,-6.367,-6.367,-6.367,-6.367,-6.367,-6.367,-6.2377,-6.255,-6.2572,-6.278,-6.2835,-6.298,-6.3039,-6.3118,-6.3186,-6.3362,-6.3467,-6.3506,-6.3582,-6.3712,-6.3827,-6.3841,-6.3889,-6.3935,-6.3944,-6.3719,-6.369,-6.3661,-6.3622,-6.3944,-6.3945,-6.4174,-6.4176,-6.4178]}]]